Location: Blanton
(30.8302°N, 83.1188°W)
Time: 17:27:26
(UTC+00:00)

X-37B - Pass Details

Date: 02 December 2021
Orbit: 334 x 337 km, 45.0° (Epoch: 11 January)

Event Time Altitude Azimuth Distance (km) Brightness Sun altitude
Rises 00:24:24 0° 216° (SW) 2,086 5.0 -24.0°
Reaches altitude 10° 00:26:29 10° 206° (SSW) 1,254 3.6 -24.4°
Enters shadow 00:26:36 11° 205° (SSW) 1,211 3.5 -24.4°
